West Wemyss, United Kingdom

11:56 AM BST on August 24, 2017 (GMT +0100)
West Wemyss

Weather History for 03160 - April, 2013

Change the Weather History Date:

Friday, April 19, 2013

  Actual Average Record
Temperature  
Mean Temperature 46 °F -  
Max Temperature 57 °F 56 °F - ()
Min Temperature 35 °F 41 °F - ()
Degree Days  
Heating Degree Days 19    
Moisture  
Dew Point 35 °F    
Average Humidity 67    
Maximum Humidity 93    
Minimum Humidity 41    
Precipitation  
Precipitation 0.00 in 0.06 in - ()
Sea Level Pressure  
Sea Level Pressure 30.24 in    
Wind  
Wind Speed 4 mph ()    
Max Wind Speed 13 mph    
Max Gust Speed -    
Visibility 6.2 miles    
Events      
T = Trace of Precipitation, MM = Missing Value Source: Averaged Metar Reports

Daily Weather History Graph

Daily Weather History Graph

Search for Another Location

Airport or City:

Trip Planner

Search our weather history database for the weather conditions in past years. The results will help you decide how hot, cold, wet, or windy it might be!

Date:

Astronomy

Apr. 19, 2013 Rise Set
Actual Time 5:57 AM BST 8:28 PM BST
Civil Twilight 5:16 AM BST 9:09 PM BST
Nautical Twilight 4:23 AM BST 10:03 PM BST
Astronomical Twilight 3:17 AM BST 11:11 PM BST
Moon 12:51 PM BST (4/19) 3:15 AM BST (4/19)
Length of Visible Light 15h 52m
Length of Day
14h 30m
First Quarter, 59% of the Moon is Illuminated
Apr 19
First Quarter
Apr 25
Full
May 2
Last Quarter
May 10
New
May 18
First Quarter

Hourly Weather History & Observations

Time (BST) Temp. Windchill Dew Point Humidity Pressure Visibility Wind Dir Wind Speed Gust Speed Precip Events Conditions
12:20 AM 42.8 °F 41.1 °F 39.2 °F 87% 29.92 in 6.2 mi SW 3.5 mph - N/A   Mostly Cloudy
12:50 AM 42.8 °F - 37.4 °F 81% 29.95 in 6.2 mi Variable 2.3 mph - N/A   Partly Cloudy
1:20 AM 42.8 °F 41.1 °F 37.4 °F 81% 29.98 in 6.2 mi Variable 3.5 mph - N/A   Unknown
1:50 AM 44.6 °F 43.1 °F 39.2 °F 81% 29.98 in 6.2 mi Variable 3.5 mph - N/A   Mostly Cloudy
2:20 AM 42.8 °F - 39.2 °F 87% 30.01 in 6.2 mi WNW 2.3 mph - N/A   Partly Cloudy
2:50 AM 42.8 °F - 37.4 °F 81% 30.01 in 6.2 mi Variable 2.3 mph - N/A   Partly Cloudy
3:20 AM 41.0 °F - 37.4 °F 87% 30.04 in 6.2 mi NW 2.3 mph - N/A   Scattered Clouds
3:50 AM 41.0 °F - 37.4 °F 87% 30.06 in 6.2 mi WNW 2.3 mph - N/A   Mostly Cloudy
4:20 AM 41.0 °F 38.0 °F 37.4 °F 87% 30.06 in 6.2 mi WNW 4.6 mph - N/A   Partly Cloudy
4:50 AM 39.2 °F - 33.8 °F 81% 30.09 in 6.2 mi Calm Calm - N/A   Partly Cloudy
5:20 AM 37.4 °F - 35.6 °F 93% 30.09 in 6.2 mi Variable 2.3 mph - N/A   Unknown
5:50 AM 37.4 °F 34.9 °F 33.8 °F 87% 30.12 in 6.2 mi WSW 3.5 mph - N/A   Unknown
6:20 AM 35.6 °F - 33.8 °F 93% 30.15 in 6.2 mi Variable 2.3 mph - N/A   Unknown
6:50 AM 35.6 °F - 33.8 °F 93% 30.15 in 6.2 mi Variable 2.3 mph - N/A   Unknown
7:20 AM 39.2 °F 37.0 °F 35.6 °F 87% 30.18 in 6.2 mi WSW 3.5 mph - N/A   Partly Cloudy
7:50 AM 42.8 °F - 37.4 °F 81% 30.21 in - WNW 2.3 mph - N/A   Clear
8:20 AM 42.8 °F - 37.4 °F 81% 30.21 in 6.2 mi Variable 2.3 mph - N/A   Partly Cloudy
8:50 AM 44.6 °F 41.4 °F 35.6 °F 71% 30.24 in 6.2 mi NW 5.8 mph - N/A   Partly Cloudy
9:20 AM 44.6 °F 43.1 °F 35.6 °F 71% 30.24 in 6.2 mi Variable 3.5 mph - N/A   Partly Cloudy
9:50 AM 46.4 °F 43.5 °F 33.8 °F 62% 30.27 in 6.2 mi NNW 5.8 mph - N/A   Partly Cloudy
10:20 AM 48.2 °F - 33.8 °F 58% 30.27 in 6.2 mi NNW 4.6 mph - N/A   Partly Cloudy
10:50 AM 48.2 °F - 32.0 °F 54% 30.30 in 6.2 mi Variable 2.3 mph - N/A   Partly Cloudy
11:20 AM 48.2 °F - 30.2 °F 50% 30.30 in 6.2 mi West 4.6 mph - N/A   Partly Cloudy
11:50 AM 50.0 °F - 32.0 °F 50% 30.30 in 6.2 mi Variable 2.3 mph - N/A   Scattered Clouds
12:20 PM 50.0 °F - 32.0 °F 50% 30.30 in 6.2 mi Variable 3.5 mph - N/A   Scattered Clouds
12:50 PM 50.0 °F - 33.8 °F 54% 30.30 in 6.2 mi SW 6.9 mph - N/A   Scattered Clouds
1:20 PM 51.8 °F - 33.8 °F 50% 30.33 in 6.2 mi Variable 4.6 mph - N/A   Scattered Clouds
1:50 PM 53.6 °F - 33.8 °F 47% 30.33 in 6.2 mi West 4.6 mph - N/A   Scattered Clouds
2:20 PM 53.6 °F - 33.8 °F 47% 30.33 in 6.2 mi WSW 5.8 mph - N/A   Scattered Clouds
2:50 PM 51.8 °F - 32.0 °F 47% 30.33 in 6.2 mi SW 5.8 mph - N/A   Scattered Clouds
3:20 PM 55.4 °F - 32.0 °F 41% 30.33 in - SW 8.1 mph - N/A   Clear
3:50 PM 57.2 °F - 33.8 °F 41% 30.33 in - WSW 10.4 mph - N/A   Clear
4:20 PM 55.4 °F - 33.8 °F 44% 30.33 in 6.2 mi WSW 10.4 mph - N/A   Unknown
4:50 PM 55.4 °F - 33.8 °F 44% 30.33 in - WSW 11.5 mph - N/A   Clear
5:20 PM 55.4 °F - 33.8 °F 44% 30.33 in - WSW 12.7 mph - N/A   Clear
5:50 PM 53.6 °F - 32.0 °F 44% 30.36 in - WSW 12.7 mph - N/A   Clear
6:20 PM 53.6 °F - 33.8 °F 47% 30.36 in - West 12.7 mph - N/A   Clear
6:50 PM 51.8 °F - 33.8 °F 50% 30.36 in - West 10.4 mph - N/A   Clear
7:20 PM 50.0 °F - 33.8 °F 54% 30.36 in - West 11.5 mph - N/A   Clear
7:50 PM 48.2 °F - 33.8 °F 58% 30.36 in - WSW 11.5 mph - N/A   Clear
8:20 PM 44.6 °F 39.2 °F 33.8 °F 66% 30.39 in - WSW 10.4 mph - N/A   Clear
8:50 PM 44.6 °F 40.2 °F 33.8 °F 66% 30.39 in - WSW 8.1 mph - N/A   Clear
9:20 PM 42.8 °F 37.5 °F 33.8 °F 70% 30.39 in - WSW 9.2 mph - N/A   Clear
9:50 PM 42.8 °F 38.0 °F 33.8 °F 70% 30.39 in - WSW 8.1 mph - N/A   Clear
10:20 PM 41.0 °F 36.4 °F 32.0 °F 70% 30.42 in 6.2 mi SSW 6.9 mph - N/A   Unknown
10:50 PM 41.0 °F 36.4 °F 32.0 °F 70% 30.42 in 6.2 mi SW 6.9 mph - N/A   Unknown
11:20 PM 39.2 °F 35.0 °F 33.8 °F 81% 30.42 in - WSW 5.8 mph - N/A   Clear
11:50 PM 37.4 °F 31.4 °F 33.8 °F 87% 30.42 in 6.2 mi WSW 8.1 mph - N/A   Mostly Cloudy